Time,TemperatureF,DewpointF,PressureIn,WindDirection,WindDirectionDegrees,WindSpeedMPH,WindSpeedGustMPH,Humidity,HourlyPrecipIn,Conditions,Clouds,dailyrainin,SolarRadiationWatts/m^2,SoftwareType,DateUTC
2013-10-07 00:00:00,78.8,71.0,29.85,SSE,164,0.0,0.0,77,0.00,,CLR,0.00,0.00,VWS V14.00,2013-10-07 04:00:00,
2013-10-07 00:01:00,78.8,71.0,29.85,SSE,164,0.0,0.0,77,0.00,,CLR,0.00,0.00,VWS V14.00,2013-10-07 04:01:00,
2013-10-07 00:02:00,78.7,71.3,29.85,SSE,164,0.0,0.0,78,0.00,,CLR,0.00,0.00,VWS V14.00,2013-10-07 04:02:00,
2013-10-07 00:07:00,78.7,71.3,29.85,SSE,164,0.0,0.0,78,0.00,,CLR,0.00,0.00,VWS V14.00,2013-10-07 04:07:00,
2013-10-07 00:12:00,78.7,71.3,29.85,SSE,164,0.0,1.0,78,0.00,,CLR,0.00,0.00,VWS V14.00,2013-10-07 04:12:00,
2013-10-07 00:18:00,78.7,71.3,29.85,SSE,164,0.0,1.0,78,0.00,,CLR,0.00,0.00,VWS V14.00,2013-10-07 04:18:00,
2013-10-07 00:23:00,78.7,71.3,29.85,SSE,164,0.0,0.0,78,0.00,,CLR,0.00,0.00,VWS V14.00,2013-10-07 04:23:00,
2013-10-07 00:28:00,78.7,71.3,29.85,SSE,164,0.0,0.0,78,0.00,,CLR,0.00,0.00,VWS V14.00,2013-10-07 04:28:00,
2013-10-07 00:33:00,78.7,71.3,29.85,SSE,164,0.0,3.0,78,0.00,,CLR,0.00,0.00,VWS V14.00,2013-10-07 04:33:00,
2013-10-07 00:38:00,78.6,71.2,29.85,SSE,164,0.0,0.0,78,0.00,,CLR,0.00,0.00,VWS V14.00,2013-10-07 04:38:00,
2013-10-07 00:43:00,78.5,71.1,29.84,SSE,164,0.0,0.0,78,0.00,,CLR,0.00,0.00,VWS V14.00,2013-10-07 04:43:00,
2013-10-07 00:48:00,78.4,71.3,29.84,SSE,164,0.0,0.0,79,0.00,,CLR,0.00,0.00,VWS V14.00,2013-10-07 04:48:00,
2013-10-07 00:53:00,78.4,71.3,29.84,SSE,164,0.0,0.0,79,0.00,,CLR,0.00,0.00,VWS V14.00,2013-10-07 04:53:00,
2013-10-07 00:58:00,78.3,71.3,29.84,SSE,164,0.0,0.0,79,0.00,,CLR,0.00,0.00,VWS V14.00,2013-10-07 04:58:00,
2013-10-07 01:03:00,78.2,71.2,29.84,SSE,164,0.0,0.0,79,0.00,,CLR,0.00,0.00,VWS V14.00,2013-10-07 05:03:00,
2013-10-07 01:08:00,78.0,71.0,29.84,SSE,164,0.0,0.0,79,0.00,,CLR,0.00,0.00,VWS V14.00,2013-10-07 05:08:00,
2013-10-07 01:13:00,77.8,71.1,29.83,SSE,164,0.0,0.0,80,0.00,,CLR,0.00,0.00,VWS V14.00,2013-10-07 05:13:00,
2013-10-07 01:18:00,77.7,71.0,29.84,SSE,164,0.0,0.0,80,0.00,,CLR,0.00,0.00,VWS V14.00,2013-10-07 05:18:00,
2013-10-07 01:23:00,77.5,71.2,29.83,SSE,164,0.0,0.0,81,0.00,,CLR,0.00,0.00,VWS V14.00,2013-10-07 05:23:00,
2013-10-07 01:28:00,77.4,71.1,29.83,SSE,164,0.0,0.0,81,0.00,,CLR,0.00,0.00,VWS V14.00,2013-10-07 05:28:00,
2013-10-07 01:33:00,77.2,70.9,29.83,SSE,164,0.0,0.0,81,0.00,,CLR,0.00,0.00,VWS V14.00,2013-10-07 05:33:00,
2013-10-07 01:38:00,77.1,70.8,29.83,SSE,164,0.0,0.0,81,0.00,,CLR,0.00,0.00,VWS V14.00,2013-10-07 05:38:00,
2013-10-07 01:43:00,77.0,71.1,29.83,SSE,164,0.0,0.0,82,0.00,,CLR,0.00,0.00,VWS V14.00,2013-10-07 05:43:00,
2013-10-07 01:48:00,76.9,71.0,29.83,SSE,164,0.0,0.0,82,0.00,,CLR,0.00,0.00,VWS V14.00,2013-10-07 05:48:00,
2013-10-07 01:53:00,76.8,70.9,29.83,SSE,164,0.0,0.0,82,0.00,,CLR,0.00,0.00,VWS V14.00,2013-10-07 05:53:00,
2013-10-07 01:58:00,76.7,70.8,29.83,SSE,164,0.0,0.0,82,0.00,,CLR,0.00,0.00,VWS V14.00,2013-10-07 05:58:00,
2013-10-07 02:03:00,76.6,71.1,29.83,SSE,164,0.0,0.0,83,0.00,,CLR,0.00,0.00,VWS V14.00,2013-10-07 06:03:00,
2013-10-07 02:08:00,76.4,70.9,29.83,SSE,164,0.0,0.0,83,0.00,,CLR,0.00,0.00,VWS V14.00,2013-10-07 06:08:00,
2013-10-07 02:13:00,76.4,70.9,29.83,SSE,164,0.0,0.0,83,0.00,,CLR,0.00,0.00,VWS V14.00,2013-10-07 06:13:00,
2013-10-07 02:18:00,76.3,70.8,29.83,SSE,164,0.0,1.0,83,0.00,,CLR,0.00,0.00,VWS V14.00,2013-10-07 06:18:00,
2013-10-07 02:23:00,76.2,71.0,29.82,SSE,164,0.0,0.0,84,0.00,,CLR,0.00,0.00,VWS V14.00,2013-10-07 06:23:00,
2013-10-07 02:28:00,76.1,70.9,29.82,SSE,164,0.0,0.0,84,0.00,,CLR,0.00,0.00,VWS V14.00,2013-10-07 06:28:00,
2013-10-07 02:33:00,76.0,70.8,29.82,SSE,164,0.0,0.0,84,0.00,,CLR,0.00,0.00,VWS V14.00,2013-10-07 06:33:00,
2013-10-07 02:38:00,76.0,70.8,29.82,SSE,164,0.0,0.0,84,0.00,,CLR,0.00,0.00,VWS V14.00,2013-10-07 06:38:00,
2013-10-07 02:43:00,75.8,70.6,29.82,SSE,164,0.0,0.0,84,0.00,,CLR,0.00,0.00,VWS V14.00,2013-10-07 06:43:00,
2013-10-07 02:48:00,75.7,70.5,29.82,SSE,164,0.0,0.0,84,0.00,,CLR,0.00,0.00,VWS V14.00,2013-10-07 06:48:00,
2013-10-07 02:53:00,75.5,70.7,29.82,SSE,164,0.0,0.0,85,0.00,,CLR,0.00,0.00,VWS V14.00,2013-10-07 06:53:00,
2013-10-07 02:58:00,75.4,70.6,29.82,SSE,164,0.0,0.0,85,0.00,,CLR,0.00,0.00,VWS V14.00,2013-10-07 06:58:00,
2013-10-07 03:03:00,75.2,70.4,29.82,SSE,164,0.0,0.0,85,0.00,,CLR,0.00,0.00,VWS V14.00,2013-10-07 07:03:00,
2013-10-07 03:08:00,75.1,70.3,29.82,SSE,164,0.0,0.0,85,0.00,,CLR,0.00,0.00,VWS V14.00,2013-10-07 07:08:00,
2013-10-07 03:13:00,75.0,70.2,29.81,SSE,164,0.0,0.0,85,0.00,,CLR,0.00,0.00,VWS V14.00,2013-10-07 07:13:00,
2013-10-07 03:18:00,74.9,70.4,29.81,SSE,164,0.0,0.0,86,0.00,,CLR,0.00,0.00,VWS V14.00,2013-10-07 07:18:00,
2013-10-07 03:23:00,74.8,70.3,29.81,SSE,164,0.0,0.0,86,0.00,,CLR,0.00,0.00,VWS V14.00,2013-10-07 07:23:00,
2013-10-07 03:28:00,74.7,70.2,29.82,SSE,164,0.0,0.0,86,0.00,,CLR,0.00,0.00,VWS V14.00,2013-10-07 07:28:00,
2013-10-07 03:33:00,74.6,70.1,29.81,SSE,164,0.0,0.0,86,0.00,,CLR,0.00,0.00,VWS V14.00,2013-10-07 07:33:00,
2013-10-07 03:38:00,74.6,70.1,29.81,SSE,164,0.0,0.0,86,0.00,,CLR,0.00,0.00,VWS V14.00,2013-10-07 07:38:00,
2013-10-07 03:43:00,74.5,70.0,29.81,SSE,164,0.0,0.0,86,0.00,,CLR,0.00,0.00,VWS V14.00,2013-10-07 07:43:00,
2013-10-07 03:48:00,74.5,70.0,29.81,SSE,164,0.0,0.0,86,0.00,,CLR,0.00,0.00,VWS V14.00,2013-10-07 07:48:00,
2013-10-07 03:53:00,74.6,70.1,29.81,SSE,164,0.0,0.0,86,0.00,,CLR,0.00,0.00,VWS V14.00,2013-10-07 07:53:00,
2013-10-07 03:58:00,74.5,70.0,29.81,SSE,164,0.0,0.0,86,0.00,,CLR,0.00,0.00,VWS V14.00,2013-10-07 07:58:00,
2013-10-07 04:03:00,74.4,69.9,29.81,SSE,164,0.0,0.0,86,0.00,,CLR,0.00,0.00,VWS V14.00,2013-10-07 08:03:00,
2013-10-07 04:08:00,74.4,70.3,29.82,SSE,164,0.0,0.0,87,0.00,,CLR,0.00,0.00,VWS V14.00,2013-10-07 08:08:00,
2013-10-07 04:13:00,74.4,70.3,29.81,SSE,164,0.0,0.0,87,0.00,,CLR,0.00,0.00,VWS V14.00,2013-10-07 08:13:00,
2013-10-07 04:18:00,74.3,70.2,29.81,SSE,164,0.0,0.0,87,0.00,,CLR,0.00,0.00,VWS V14.00,2013-10-07 08:18:00,
2013-10-07 04:24:00,74.3,70.2,29.81,SSE,164,0.0,0.0,87,0.00,,CLR,0.00,0.00,VWS V14.00,2013-10-07 08:24:00,
2013-10-07 04:29:00,74.3,70.2,29.81,SSE,164,0.0,0.0,87,0.00,,CLR,0.00,0.00,VWS V14.00,2013-10-07 08:29:00,
2013-10-07 04:34:00,74.2,70.1,29.81,SSE,164,0.0,0.0,87,0.00,,CLR,0.00,0.00,VWS V14.00,2013-10-07 08:34:00,
2013-10-07 04:39:00,74.2,70.1,29.81,SSE,164,0.0,0.0,87,0.00,,CLR,0.00,0.00,VWS V14.00,2013-10-07 08:39:00,
2013-10-07 04:44:00,74.1,70.0,29.81,SSE,164,0.0,0.0,87,0.00,,CLR,0.00,0.00,VWS V14.00,2013-10-07 08:44:00,
2013-10-07 04:49:00,74.1,70.0,29.81,SSE,164,0.0,0.0,87,0.00,,CLR,0.00,0.00,VWS V14.00,2013-10-07 08:49:00,
2013-10-07 04:54:00,74.1,70.0,29.81,SSE,164,0.0,0.0,87,0.00,,CLR,0.00,0.00,VWS V14.00,2013-10-07 08:54:00,
2013-10-07 04:59:00,74.1,70.3,29.81,SSE,164,0.0,0.0,88,0.00,,CLR,0.00,0.00,VWS V14.00,2013-10-07 08:59:00,
2013-10-07 05:04:00,74.2,70.4,29.81,SSE,164,0.0,0.0,88,0.00,,CLR,0.00,0.00,VWS V14.00,2013-10-07 09:04:00,
2013-10-07 05:09:00,74.2,70.4,29.81,SSE,164,0.0,0.0,88,0.00,,CLR,0.00,0.00,VWS V14.00,2013-10-07 09:09:00,
2013-10-07 05:14:00,74.2,70.4,29.81,SSE,164,0.0,0.0,88,0.00,,CLR,0.00,0.00,VWS V14.00,2013-10-07 09:14:00,
2013-10-07 05:19:00,74.2,70.4,29.81,SSE,164,0.0,0.0,88,0.00,,CLR,0.00,0.00,VWS V14.00,2013-10-07 09:19:00,
2013-10-07 05:24:00,74.2,70.4,29.80,SSE,164,0.0,0.0,88,0.00,,CLR,0.00,0.00,VWS V14.00,2013-10-07 09:24:00,
2013-10-07 05:29:00,74.2,70.4,29.80,SSE,164,0.0,0.0,88,0.00,,CLR,0.00,0.00,VWS V14.00,2013-10-07 09:29:00,
2013-10-07 05:34:00,74.2,70.4,29.81,SSE,164,0.0,0.0,88,0.00,,CLR,0.00,0.00,VWS V14.00,2013-10-07 09:34:00,
2013-10-07 05:39:00,74.1,70.3,29.81,SSE,164,0.0,0.0,88,0.00,,CLR,0.00,0.00,VWS V14.00,2013-10-07 09:39:00,
2013-10-07 05:44:00,74.0,70.2,29.81,SSE,164,0.0,0.0,88,0.00,,CLR,0.00,0.00,VWS V14.00,2013-10-07 09:44:00,
2013-10-07 05:49:00,74.1,70.3,29.81,SSE,164,0.0,0.0,88,0.00,,CLR,0.00,0.00,VWS V14.00,2013-10-07 09:49:00,
2013-10-07 05:54:00,74.1,70.3,29.81,SSE,164,0.0,0.0,88,0.00,,CLR,0.00,0.00,VWS V14.00,2013-10-07 09:54:00,
2013-10-07 05:59:00,74.1,70.3,29.81,SSE,164,0.0,0.0,88,0.00,,CLR,0.00,0.00,VWS V14.00,2013-10-07 09:59:00,
2013-10-07 06:04:00,74.1,70.3,29.82,SSE,164,0.0,0.0,88,0.00,,CLR,0.00,0.00,VWS V14.00,2013-10-07 10:04:00,
2013-10-07 06:09:00,74.1,70.3,29.81,SSE,164,0.0,0.0,88,0.00,,CLR,0.00,0.00,VWS V14.00,2013-10-07 10:09:00,
2013-10-07 06:14:00,74.1,70.3,29.82,SSE,164,0.0,0.0,88,0.00,,CLR,0.00,0.00,VWS V14.00,2013-10-07 10:14:00,
2013-10-07 06:19:00,74.0,70.2,29.82,SSE,164,0.0,0.0,88,0.00,,CLR,0.00,0.00,VWS V14.00,2013-10-07 10:19:00,
2013-10-07 06:24:00,73.9,70.1,29.82,SSE,164,0.0,0.0,88,0.00,,CLR,0.00,0.00,VWS V14.00,2013-10-07 10:24:00,
2013-10-07 06:29:00,73.9,70.1,29.82,SSE,164,0.0,0.0,88,0.00,,CLR,0.00,0.00,VWS V14.00,2013-10-07 10:29:00,
2013-10-07 06:34:00,73.9,70.1,29.82,SSE,164,0.0,0.0,88,0.00,,CLR,0.00,0.00,VWS V14.00,2013-10-07 10:34:00,
2013-10-07 06:39:00,73.9,70.1,29.82,SSE,164,0.0,0.0,88,0.00,,CLR,0.00,0.00,VWS V14.00,2013-10-07 10:39:00,
2013-10-07 06:45:00,73.8,70.0,29.83,SSE,164,0.0,0.0,88,0.00,,CLR,0.00,0.00,VWS V14.00,2013-10-07 10:45:00,
2013-10-07 06:50:00,73.8,70.0,29.83,SSE,164,0.0,0.0,88,0.00,,CLR,0.00,0.00,VWS V14.00,2013-10-07 10:50:00,
2013-10-07 06:55:00,73.9,70.1,29.83,SSE,164,0.0,0.0,88,0.00,,CLR,0.00,0.00,VWS V14.00,2013-10-07 10:55:00,
2013-10-07 07:00:00,73.8,70.0,29.83,SSE,164,0.0,0.0,88,0.00,,CLR,0.00,0.00,VWS V14.00,2013-10-07 11:00:00,
2013-10-07 07:05:00,73.8,70.0,29.83,SSE,164,0.0,0.0,88,0.00,,CLR,0.00,0.00,VWS V14.00,2013-10-07 11:05:00,
2013-10-07 07:10:00,73.8,70.0,29.84,SSE,164,0.0,0.0,88,0.00,,CLR,0.00,0.00,VWS V14.00,2013-10-07 11:10:00,
2013-10-07 07:15:00,73.9,70.1,29.84,SSE,164,0.0,0.0,88,0.00,,CLR,0.00,0.00,VWS V14.00,2013-10-07 11:15:00,
2013-10-07 07:20:00,73.9,70.1,29.84,SSE,164,0.0,0.0,88,0.00,,CLR,0.00,0.00,VWS V14.00,2013-10-07 11:20:00,
2013-10-07 07:25:00,73.9,70.1,29.83,SSE,164,0.0,0.0,88,0.00,,CLR,0.00,5.00,VWS V14.00,2013-10-07 11:25:00,
2013-10-07 07:30:00,73.9,70.1,29.84,SSE,164,0.0,0.0,88,0.00,,CLR,0.00,7.00,VWS V14.00,2013-10-07 11:30:00,
2013-10-07 07:35:00,73.9,70.1,29.84,SSE,164,0.0,0.0,88,0.00,,CLR,0.00,67.00,VWS V14.00,2013-10-07 11:35:00,
2013-10-07 07:40:00,74.0,70.6,29.84,SSE,164,0.0,0.0,89,0.00,,CLR,0.00,77.00,VWS V14.00,2013-10-07 11:40:00,
2013-10-07 07:45:00,74.0,70.6,29.84,SSE,164,0.0,0.0,89,0.00,,CLR,0.00,83.00,VWS V14.00,2013-10-07 11:45:00,
2013-10-07 07:50:00,74.4,70.9,29.84,South,180,0.0,0.0,89,0.00,,CLR,0.00,88.00,VWS V14.00,2013-10-07 11:50:00,
2013-10-07 07:55:00,74.7,71.2,29.83,South,180,0.0,0.0,89,0.00,,CLR,0.00,90.00,VWS V14.00,2013-10-07 11:55:00,
2013-10-07 08:00:00,74.9,71.4,29.84,South,180,0.0,0.0,89,0.00,,CLR,0.00,90.00,VWS V14.00,2013-10-07 12:00:00,
2013-10-07 08:05:00,75.2,71.4,29.84,South,180,0.0,0.0,88,0.00,,CLR,0.00,91.00,VWS V14.00,2013-10-07 12:05:00,
2013-10-07 08:10:00,75.5,71.7,29.84,South,180,0.0,0.0,88,0.00,,CLR,0.00,91.00,VWS V14.00,2013-10-07 12:10:00,
2013-10-07 08:15:00,75.7,71.9,29.84,South,180,0.0,0.0,88,0.00,,CLR,0.00,93.00,VWS V14.00,2013-10-07 12:15:00,
2013-10-07 08:20:00,76.1,72.3,29.84,South,180,0.0,0.0,88,0.00,,CLR,0.00,98.00,VWS V14.00,2013-10-07 12:20:00,
2013-10-07 08:25:00,76.5,72.7,29.84,South,180,0.0,1.0,88,0.00,,CLR,0.00,104.00,VWS V14.00,2013-10-07 12:25:00,
2013-10-07 08:30:00,76.9,73.1,29.84,South,180,0.0,0.0,88,0.00,,CLR,0.00,109.00,VWS V14.00,2013-10-07 12:30:00,
2013-10-07 08:35:00,77.3,73.1,29.84,South,180,0.0,0.0,87,0.00,,CLR,0.00,113.00,VWS V14.00,2013-10-07 12:35:00,
2013-10-07 08:40:00,77.7,73.5,29.84,South,180,0.0,2.0,87,0.00,,CLR,0.00,114.00,VWS V14.00,2013-10-07 12:40:00,
2013-10-07 08:45:00,78.1,73.6,29.84,South,180,0.0,1.0,86,0.00,,CLR,0.00,118.00,VWS V14.00,2013-10-07 12:45:00,
2013-10-07 08:50:00,78.5,74.0,29.85,South,180,2.0,2.0,86,0.00,,CLR,0.00,121.00,VWS V14.00,2013-10-07 12:50:00,
2013-10-07 08:55:00,78.9,74.0,29.85,South,184,1.0,6.0,85,0.00,,CLR,0.00,123.00,VWS V14.00,2013-10-07 12:55:00,
2013-10-07 09:00:00,79.3,74.4,29.85,South,184,0.0,1.0,85,0.00,,CLR,0.00,127.00,VWS V14.00,2013-10-07 13:00:00,
2013-10-07 09:06:00,79.6,74.3,29.85,South,188,0.0,3.0,84,0.00,,CLR,0.00,132.00,VWS V14.00,2013-10-07 13:06:00,
2013-10-07 09:11:00,80.0,74.7,29.85,South,188,4.0,5.0,84,0.00,,CLR,0.00,135.00,VWS V14.00,2013-10-07 13:11:00,
2013-10-07 09:16:00,80.4,74.8,29.85,South,188,0.0,2.0,83,0.00,,CLR,0.00,137.00,VWS V14.00,2013-10-07 13:16:00,
2013-10-07 09:21:00,80.7,74.7,29.85,SSW,196,3.0,5.0,82,0.00,,CLR,0.00,141.00,VWS V14.00,2013-10-07 13:21:00,
2013-10-07 09:26:00,81.0,74.6,29.85,SSW,196,3.0,4.0,81,0.00,,CLR,0.00,134.00,VWS V14.00,2013-10-07 13:26:00,
2013-10-07 09:31:00,81.4,74.6,29.85,SW,217,4.0,6.0,80,0.00,,CLR,0.00,142.00,VWS V14.00,2013-10-07 13:31:00,
2013-10-07 09:36:00,81.7,74.6,29.85,SW,235,5.0,7.0,79,0.00,,CLR,0.00,139.00,VWS V14.00,2013-10-07 13:36:00,
2013-10-07 09:41:00,82.0,74.1,29.85,WSW,254,3.0,7.0,77,0.00,,CLR,0.00,137.00,VWS V14.00,2013-10-07 13:41:00,
2013-10-07 09:46:00,82.4,74.5,29.85,WSW,255,4.0,7.0,77,0.00,,CLR,0.00,141.00,VWS V14.00,2013-10-07 13:46:00,
2013-10-07 09:51:00,82.7,74.0,29.85,WNW,284,2.0,9.0,75,0.00,,CLR,0.00,142.00,VWS V14.00,2013-10-07 13:51:00,
2013-10-07 09:56:00,83.0,73.9,29.85,SW,229,4.0,8.0,74,0.00,,CLR,0.00,141.00,VWS V14.00,2013-10-07 13:56:00,
2013-10-07 10:01:00,83.3,73.8,29.84,WSW,244,5.0,9.0,73,0.00,,CLR,0.00,146.00,VWS V14.00,2013-10-07 14:01:00,
2013-10-07 10:06:00,83.4,73.8,29.85,WSW,238,4.0,7.0,73,0.00,,CLR,0.00,135.00,VWS V14.00,2013-10-07 14:06:00,
2013-10-07 10:11:00,83.5,73.5,29.85,West,261,3.0,14.0,72,0.00,,CLR,0.00,141.00,VWS V14.00,2013-10-07 14:11:00,
2013-10-07 10:16:00,83.7,74.1,29.85,SW,219,5.0,11.0,73,0.00,,CLR,0.00,146.00,VWS V14.00,2013-10-07 14:16:00,
2013-10-07 10:21:00,84.1,74.1,29.85,WSW,251,6.0,7.0,72,0.00,,CLR,0.00,149.00,VWS V14.00,2013-10-07 14:21:00,
2013-10-07 10:26:00,84.1,73.7,29.85,West,259,8.0,12.0,71,0.00,,CLR,0.00,149.00,VWS V14.00,2013-10-07 14:26:00,
2013-10-07 10:31:00,84.3,74.3,29.85,WSW,246,4.0,12.0,72,0.00,,CLR,0.00,139.00,VWS V14.00,2013-10-07 14:31:00,
2013-10-07 10:36:00,84.7,74.7,29.85,WSW,238,2.0,3.0,72,0.00,,CLR,0.00,162.00,VWS V14.00,2013-10-07 14:36:00,
2013-10-07 10:41:00,85.0,74.1,29.85,WSW,250,5.0,10.0,70,0.00,,CLR,0.00,169.00,VWS V14.00,2013-10-07 14:41:00,
2013-10-07 10:46:00,84.9,74.4,29.85,WSW,254,5.0,12.0,71,0.00,,CLR,0.00,160.00,VWS V14.00,2013-10-07 14:46:00,
2013-10-07 10:51:00,85.2,74.3,29.85,WSW,240,0.0,5.0,70,0.00,,CLR,0.00,62.00,VWS V14.00,2013-10-07 14:51:00,
2013-10-07 10:56:00,85.1,73.8,29.85,West,265,9.0,10.0,69,0.00,,CLR,0.00,58.00,VWS V14.00,2013-10-07 14:56:00,
2013-10-07 11:01:00,84.5,73.7,29.85,WSW,250,7.0,7.0,70,0.00,,CLR,0.00,60.00,VWS V14.00,2013-10-07 15:01:00,
2013-10-07 11:06:00,84.4,73.1,29.85,WSW,251,6.0,6.0,69,0.00,,CLR,0.00,62.00,VWS V14.00,2013-10-07 15:06:00,
2013-10-07 11:11:00,84.6,73.3,29.85,WSW,250,2.0,7.0,69,0.00,,CLR,0.00,60.00,VWS V14.00,2013-10-07 15:11:00,
2013-10-07 11:16:00,85.2,73.9,29.85,WSW,251,3.0,8.0,69,0.00,,CLR,0.00,167.00,VWS V14.00,2013-10-07 15:16:00,
2013-10-07 11:21:00,85.7,73.5,29.85,WSW,251,1.0,3.0,67,0.00,,CLR,0.00,137.00,VWS V14.00,2013-10-07 15:21:00,
2013-10-07 11:26:00,86.1,73.0,29.84,SW,235,3.0,7.0,65,0.00,,CLR,0.00,155.00,VWS V14.00,2013-10-07 15:26:00,
2013-10-07 11:32:00,86.4,73.7,29.84,WSW,251,3.0,9.0,66,0.00,,SCT030CU,0.00,155.00,VWS V14.00,2013-10-07 15:32:00,
2013-10-07 11:37:00,86.8,73.2,29.84,West,259,7.0,9.0,64,0.00,,SCT030CU,0.00,155.00,VWS V14.00,2013-10-07 15:37:00,
2013-10-07 11:42:00,86.5,73.8,29.84,West,275,0.0,4.0,66,0.00,,SCT030CU,0.00,162.00,VWS V14.00,2013-10-07 15:42:00,
2013-10-07 11:47:00,86.7,73.5,29.84,WSW,246,4.0,9.0,65,0.00,,SCT030CU,0.00,137.00,VWS V14.00,2013-10-07 15:47:00,
2013-10-07 11:52:00,87.2,73.1,29.84,WSW,253,8.0,10.0,63,0.00,,SCT030CU,0.00,114.00,VWS V14.00,2013-10-07 15:52:00,
2013-10-07 11:57:00,87.0,73.4,29.83,West,263,6.0,11.0,64,0.00,,SCT030CU,0.00,176.00,VWS V14.00,2013-10-07 15:57:00,
2013-10-07 12:02:00,87.0,73.4,29.83,West,260,9.0,11.0,64,0.00,,SCT030CU,0.00,162.00,VWS V14.00,2013-10-07 16:02:00,
2013-10-07 12:07:00,87.0,73.8,29.83,West,277,6.0,9.0,65,0.00,,SCT030CU,0.00,185.00,VWS V14.00,2013-10-07 16:07:00,
2013-10-07 12:12:00,87.7,74.0,29.83,WSW,258,4.0,14.0,64,0.00,,SCT030CU,0.00,176.00,VWS V14.00,2013-10-07 16:12:00,
2013-10-07 12:17:00,88.1,74.4,29.83,WSW,244,3.0,7.0,64,0.00,,SCT030CU,0.00,162.00,VWS V14.00,2013-10-07 16:17:00,
2013-10-07 12:22:00,87.8,73.6,29.83,WNW,292,4.0,9.0,63,0.00,,SCT030CU,0.00,88.00,VWS V14.00,2013-10-07 16:22:00,
2013-10-07 12:27:00,87.0,73.4,29.83,WSW,251,5.0,10.0,64,0.00,,SCT030CU,0.00,95.00,VWS V14.00,2013-10-07 16:27:00,
2013-10-07 12:32:00,86.8,73.6,29.82,WSW,256,4.0,10.0,65,0.00,,SCT030CU,0.00,102.00,VWS V14.00,2013-10-07 16:32:00,
2013-10-07 12:37:00,86.6,73.4,29.82,West,261,5.0,8.0,65,0.00,,SCT030CU,0.00,142.00,VWS V14.00,2013-10-07 16:37:00,
2013-10-07 12:42:00,87.3,74.1,29.81,West,267,6.0,6.0,65,0.00,,SCT030CU,0.00,158.00,VWS V14.00,2013-10-07 16:42:00,
2013-10-07 12:47:00,87.5,73.8,29.81,WNW,292,2.0,6.0,64,0.00,,SCT030CU,0.00,163.00,VWS V14.00,2013-10-07 16:47:00,
2013-10-07 12:52:00,87.7,74.0,29.81,West,264,4.0,10.0,64,0.00,,SCT030CU,0.00,172.00,VWS V14.00,2013-10-07 16:52:00,
2013-10-07 12:57:00,87.7,74.0,29.81,WSW,252,3.0,10.0,64,0.00,,SCT030CU,0.00,95.00,VWS V14.00,2013-10-07 16:57:00,
2013-10-07 13:02:00,87.9,74.2,29.81,WSW,248,5.0,12.0,64,0.00,,SCT030CU,0.00,174.00,VWS V14.00,2013-10-07 17:02:00,
2013-10-07 13:07:00,87.9,73.7,29.81,WSW,239,7.0,9.0,63,0.00,,SCT030CU,0.00,130.00,VWS V14.00,2013-10-07 17:07:00,
2013-10-07 13:12:00,87.9,74.2,29.81,WSW,253,7.0,10.0,64,0.00,,SCT030CU,0.00,84.00,VWS V14.00,2013-10-07 17:12:00,
2013-10-07 13:17:00,88.0,74.8,29.81,WSW,255,0.0,3.0,65,0.00,,SCT030CU,0.00,77.00,VWS V14.00,2013-10-07 17:17:00,
2013-10-07 13:22:00,87.9,74.2,29.81,West,259,6.0,10.0,64,0.00,,SCT030CU,0.00,104.00,VWS V14.00,2013-10-07 17:22:00,
2013-10-07 13:27:00,87.3,74.1,29.80,West,269,8.0,10.0,65,0.00,,SCT030CU,0.00,111.00,VWS V14.00,2013-10-07 17:27:00,
2013-10-07 13:32:00,87.1,73.4,29.80,West,267,3.0,10.0,64,0.00,,SCT050,0.00,113.00,VWS V14.00,2013-10-07 17:32:00,
2013-10-07 13:37:00,87.2,74.5,29.80,West,267,0.0,7.0,66,0.00,,SCT050,0.00,84.00,VWS V14.00,2013-10-07 17:37:00,
2013-10-07 13:42:00,87.6,73.9,29.80,WSW,243,4.0,7.0,64,0.00,,SCT050,0.00,137.00,VWS V14.00,2013-10-07 17:42:00,
2013-10-07 13:47:00,87.8,74.1,29.79,WSW,258,6.0,11.0,64,0.00,,SCT050,0.00,125.00,VWS V14.00,2013-10-07 17:47:00,
2013-10-07 13:52:00,87.8,74.1,29.79,SW,231,1.0,5.0,64,0.00,,SCT050,0.00,125.00,VWS V14.00,2013-10-07 17:52:00,
2013-10-07 13:57:00,88.2,73.6,29.79,WSW,247,5.0,12.0,62,0.00,,SCT050,0.00,176.00,VWS V14.00,2013-10-07 17:57:00,
2013-10-07 14:02:00,88.5,72.8,29.78,WSW,257,9.0,9.0,60,0.00,,SCT050,0.00,165.00,VWS V14.00,2013-10-07 18:02:00,
2013-10-07 14:07:00,88.8,73.6,29.78,WSW,250,0.0,5.0,61,0.00,,SCT050,0.00,74.00,VWS V14.00,2013-10-07 18:07:00,
2013-10-07 14:12:00,89.0,73.8,29.78,WSW,246,3.0,4.0,61,0.00,,SCT050,0.00,84.00,VWS V14.00,2013-10-07 18:12:00,
2013-10-07 14:17:00,88.8,74.1,29.78,WSW,254,5.0,9.0,62,0.00,,SCT050,0.00,211.00,VWS V14.00,2013-10-07 18:17:00,
2013-10-07 14:22:00,89.2,74.5,29.78,WSW,254,0.0,13.0,62,0.00,,SCT050,0.00,86.00,VWS V14.00,2013-10-07 18:22:00,
2013-10-07 14:28:00,89.1,74.4,29.78,West,278,5.0,6.0,62,0.00,,SCT050,0.00,91.00,VWS V14.00,2013-10-07 18:28:00,
2013-10-07 14:33:00,89.2,74.5,29.78,WSW,243,4.0,12.0,62,0.00,,SCT050,0.00,209.00,VWS V14.00,2013-10-07 18:33:00,
2013-10-07 14:38:00,90.2,73.4,29.77,West,259,10.0,12.0,58,0.00,,SCT050,0.00,185.00,VWS V14.00,2013-10-07 18:38:00,
2013-10-07 14:43:00,90.1,71.8,29.77,West,270,10.0,13.0,55,0.00,,SCT050,0.00,165.00,VWS V14.00,2013-10-07 18:43:00,
2013-10-07 14:48:00,89.8,72.0,29.77,West,268,7.0,11.0,56,0.00,,SCT050,0.00,158.00,VWS V14.00,2013-10-07 18:48:00,
2013-10-07 14:53:00,90.0,72.7,29.76,WSW,251,4.0,4.0,57,0.00,,SCT050,0.00,134.00,VWS V14.00,2013-10-07 18:53:00,
2013-10-07 14:58:00,90.1,72.3,29.76,WSW,254,5.0,13.0,56,0.00,,SCT050,0.00,128.00,VWS V14.00,2013-10-07 18:58:00,
2013-10-07 15:03:00,89.8,72.0,29.76,West,261,4.0,16.0,56,0.00,,SCT050,0.00,121.00,VWS V14.00,2013-10-07 19:03:00,
2013-10-07 15:08:00,89.3,71.6,29.76,West,262,4.0,10.0,56,0.00,,SCT050,0.00,111.00,VWS V14.00,2013-10-07 19:08:00,
2013-10-07 15:13:00,89.5,72.3,29.77,WSW,257,9.0,13.0,57,0.00,,SCT050,0.00,98.00,VWS V14.00,2013-10-07 19:13:00,
2013-10-07 15:18:00,89.2,72.0,29.76,WSW,258,12.0,16.0,57,0.00,,SCT050,0.00,95.00,VWS V14.00,2013-10-07 19:18:00,
2013-10-07 15:23:00,89.0,72.3,29.77,WSW,249,5.0,12.0,58,0.00,,SCT050,0.00,84.00,VWS V14.00,2013-10-07 19:23:00,
2013-10-07 15:28:00,89.0,72.3,29.76,WSW,240,6.0,7.0,58,0.00,,SCT050,0.00,76.00,VWS V14.00,2013-10-07 19:28:00,
2013-10-07 15:33:00,88.9,71.7,29.77,WNW,296,12.0,12.0,57,0.00,,BKN040CU,0.00,65.00,VWS V14.00,2013-10-07 19:33:00,
2013-10-07 15:38:00,88.5,72.3,29.78,West,269,4.0,7.0,59,0.00,,BKN040CU,0.00,40.00,VWS V14.00,2013-10-07 19:38:00,
2013-10-07 15:43:00,87.3,71.2,29.80,NW,319,9.0,26.0,59,0.00,,BKN040CU,0.00,14.00,VWS V14.00,2013-10-07 19:43:00,
2013-10-07 15:48:00,81.9,70.7,29.80,WNW,288,12.0,19.0,69,0.00,,BKN040CU,0.00,19.00,VWS V14.00,2013-10-07 19:48:00,
2013-10-07 15:53:00,79.3,70.3,29.80,NNW,331,16.0,16.0,74,0.00,,BKN040CU,0.00,25.00,VWS V14.00,2013-10-07 19:53:00,
2013-10-07 15:58:00,78.0,70.2,29.80,WNW,297,6.0,17.0,77,0.00,,BKN040CU,0.00,26.00,VWS V14.00,2013-10-07 19:58:00,
2013-10-07 16:03:00,77.1,69.7,29.81,NW,312,17.0,19.0,78,0.00,,BKN040CU,0.00,26.00,VWS V14.00,2013-10-07 20:03:00,
2013-10-07 16:08:00,76.3,69.7,29.81,WNW,288,11.0,18.0,80,0.00,,BKN040CU,0.00,21.00,VWS V14.00,2013-10-07 20:08:00,
2013-10-07 16:13:00,75.4,69.5,29.80,NNW,346,6.0,13.0,82,0.00,,BKN040CU,0.00,14.00,VWS V14.00,2013-10-07 20:13:00,
2013-10-07 16:18:00,74.7,69.6,29.79,NNW,343,6.0,11.0,84,0.00,,BKN040CU,0.00,16.00,VWS V14.00,2013-10-07 20:18:00,
2013-10-07 16:23:00,73.9,69.1,29.78,NNW,333,4.0,5.0,85,0.00,,BKN040CU,0.00,18.00,VWS V14.00,2013-10-07 20:23:00,
2013-10-07 16:28:00,73.8,69.3,29.78,NNW,331,3.0,3.0,86,0.00,,BKN040CU,0.00,18.00,VWS V14.00,2013-10-07 20:28:00,
2013-10-07 16:33:00,73.8,69.3,29.78,NNW,330,0.0,2.0,86,0.00,,BKN034CU,0.00,18.00,VWS V14.00,2013-10-07 20:33:00,
2013-10-07 16:38:00,74.0,69.6,29.78,NNW,330,1.0,3.0,86,0.00,,BKN034CU,0.00,18.00,VWS V14.00,2013-10-07 20:38:00,
2013-10-07 16:43:00,74.1,69.7,29.78,NNW,330,0.0,2.0,86,0.00,,BKN034CU,0.00,19.00,VWS V14.00,2013-10-07 20:43:00,
2013-10-07 16:48:00,74.3,69.8,29.78,NNW,330,0.0,1.0,86,0.00,,BKN034CU,0.00,18.00,VWS V14.00,2013-10-07 20:48:00,
2013-10-07 16:53:00,74.6,70.1,29.78,NNW,330,0.0,0.0,86,0.00,,BKN034CU,0.00,18.00,VWS V14.00,2013-10-07 20:53:00,
2013-10-07 16:58:00,74.7,70.2,29.78,NNW,330,0.0,0.0,86,0.00,,BKN034CU,0.00,19.00,VWS V14.00,2013-10-07 20:58:00,
2013-10-07 17:03:00,74.9,70.4,29.79,NNW,330,3.0,5.0,86,0.00,,BKN034CU,0.00,19.00,VWS V14.00,2013-10-07 21:03:00,
2013-10-07 17:08:00,75.0,70.5,29.79,NNW,328,2.0,3.0,86,0.00,,BKN034CU,0.00,19.00,VWS V14.00,2013-10-07 21:08:00,
2013-10-07 17:13:00,75.1,70.6,29.79,NNW,328,3.0,7.0,86,0.00,,BKN034CU,0.00,18.00,VWS V14.00,2013-10-07 21:13:00,
2013-10-07 17:18:00,75.4,70.9,29.79,NNW,334,7.0,7.0,86,0.00,,BKN034CU,0.00,18.00,VWS V14.00,2013-10-07 21:18:00,
2013-10-07 17:23:00,75.4,70.9,29.79,North,360,2.0,5.0,86,0.00,,BKN034CU,0.00,16.00,VWS V14.00,2013-10-07 21:23:00,
2013-10-07 17:28:00,75.4,70.9,29.79,North,351,0.0,5.0,86,0.00,,BKN034CU,0.00,14.00,VWS V14.00,2013-10-07 21:28:00,
2013-10-07 17:33:00,75.5,71.4,29.80,NNW,346,4.0,5.0,87,0.00,,BKN100,0.00,9.00,VWS V14.00,2013-10-07 21:33:00,
2013-10-07 17:38:00,75.6,71.5,29.80,NNW,346,4.0,5.0,87,0.00,,BKN100,0.00,11.00,VWS V14.00,2013-10-07 21:38:00,
2013-10-07 17:43:00,75.5,71.4,29.80,North,349,5.0,6.0,87,0.00,,BKN100,0.00,11.00,VWS V14.00,2013-10-07 21:43:00,
2013-10-07 17:48:00,75.5,71.4,29.81,North,349,0.0,3.0,87,0.00,,BKN100,0.00,11.00,VWS V14.00,2013-10-07 21:48:00,
2013-10-07 17:53:00,75.5,71.4,29.80,North,350,2.0,3.0,87,0.00,,BKN100,0.00,9.00,VWS V14.00,2013-10-07 21:53:00,
2013-10-07 17:58:00,75.5,71.4,29.80,North,350,0.0,0.0,87,0.00,,BKN100,0.00,9.00,VWS V14.00,2013-10-07 21:58:00,
2013-10-07 18:03:00,75.6,71.5,29.80,North,350,0.0,0.0,87,0.00,,BKN100,0.00,7.00,VWS V14.00,2013-10-07 22:03:00,
2013-10-07 18:08:00,75.7,71.9,29.80,North,350,0.0,1.0,88,0.00,,BKN100,0.00,7.00,VWS V14.00,2013-10-07 22:08:00,
2013-10-07 18:13:00,75.8,72.0,29.81,North,351,5.0,7.0,88,0.00,,BKN100,0.00,5.00,VWS V14.00,2013-10-07 22:13:00,
2013-10-07 18:18:00,75.7,71.9,29.81,North,355,3.0,5.0,88,0.00,,BKN100,0.00,5.00,VWS V14.00,2013-10-07 22:18:00,
2013-10-07 18:23:00,75.7,71.9,29.81,North,5,4.0,5.0,88,0.00,,BKN100,0.00,0.00,VWS V14.00,2013-10-07 22:23:00,
2013-10-07 18:29:00,75.6,71.8,29.80,North,10,4.0,5.0,88,0.00,,BKN100,0.00,0.00,VWS V14.00,2013-10-07 22:29:00,
2013-10-07 18:34:00,75.3,71.5,29.80,ENE,59,3.0,6.0,88,0.00,,-RA,0.00,0.00,VWS V14.00,2013-10-07 22:34:00,
2013-10-07 18:39:00,75.2,71.4,29.80,NE,55,0.0,0.0,88,0.00,,-RA,0.00,0.00,VWS V14.00,2013-10-07 22:39:00,
2013-10-07 18:44:00,75.2,71.4,29.80,NE,55,0.0,1.0,88,0.00,,-RA,0.00,0.00,VWS V14.00,2013-10-07 22:44:00,
2013-10-07 18:49:00,75.2,71.4,29.80,NE,55,2.0,3.0,88,0.00,,-RA,0.00,0.00,VWS V14.00,2013-10-07 22:49:00,
2013-10-07 18:54:00,75.2,71.4,29.81,NE,55,0.0,0.0,88,0.00,,-RA,0.00,0.00,VWS V14.00,2013-10-07 22:54:00,
2013-10-07 18:59:00,75.1,71.3,29.81,NE,55,0.0,0.0,88,0.00,,-RA,0.00,0.00,VWS V14.00,2013-10-07 22:59:00,
2013-10-07 19:04:00,75.2,71.4,29.82,NE,55,3.0,4.0,88,0.00,,-RA,0.00,0.00,VWS V14.00,2013-10-07 23:04:00,
2013-10-07 19:09:00,75.3,71.5,29.82,NE,54,0.0,0.0,88,0.00,,-RA,0.00,0.00,VWS V14.00,2013-10-07 23:09:00,
2013-10-07 19:14:00,75.4,71.6,29.82,East,94,0.0,1.0,88,0.00,,-RA,0.00,0.00,VWS V14.00,2013-10-07 23:14:00,
2013-10-07 19:19:00,75.4,71.6,29.82,East,101,0.0,3.0,88,0.00,,-RA,0.00,0.00,VWS V14.00,2013-10-07 23:19:00,
2013-10-07 19:24:00,75.4,71.6,29.82,ESE,102,0.0,1.0,88,0.00,,-RA,0.00,0.00,VWS V14.00,2013-10-07 23:24:00,
2013-10-07 19:29:00,74.9,71.1,29.82,SE,139,3.0,7.0,88,0.00,,-RA,0.00,0.00,VWS V14.00,2013-10-07 23:29:00,
2013-10-07 19:34:00,74.8,71.0,29.82,SE,142,3.0,3.0,88,0.00,,SCT046CU,0.00,0.00,VWS V14.00,2013-10-07 23:34:00,
2013-10-07 19:39:00,74.9,71.1,29.82,SE,142,4.0,4.0,88,0.00,,SCT046CU,0.00,0.00,VWS V14.00,2013-10-07 23:39:00,
2013-10-07 19:44:00,74.8,71.0,29.82,SE,142,0.0,1.0,88,0.00,,SCT046CU,0.00,0.00,VWS V14.00,2013-10-07 23:44:00,
2013-10-07 19:49:00,74.8,71.0,29.82,SE,143,0.0,1.0,88,0.00,,SCT046CU,0.00,0.00,VWS V14.00,2013-10-07 23:49:00,
2013-10-07 19:54:00,74.7,70.9,29.81,SE,143,3.0,3.0,88,0.00,,SCT046CU,0.00,0.00,VWS V14.00,2013-10-07 23:54:00,
2013-10-07 19:59:00,74.7,70.9,29.81,SE,143,0.0,0.0,88,0.00,,SCT046CU,0.00,0.00,VWS V14.00,2013-10-07 23:59:00,
2013-10-07 20:04:00,74.7,70.9,29.81,SE,143,0.0,0.0,88,0.00,,SCT046CU,0.00,0.00,VWS V14.00,2013-10-08 00:04:00,
2013-10-07 20:09:00,74.6,70.8,29.81,SE,143,0.0,0.0,88,0.00,,SCT028CU,0.00,0.00,VWS V14.00,2013-10-08 00:09:00,
2013-10-07 20:14:00,74.7,70.9,29.82,SE,143,0.0,0.0,88,0.00,,SCT028CU,0.00,0.00,VWS V14.00,2013-10-08 00:14:00,
2013-10-07 20:19:00,74.7,70.9,29.82,SE,143,0.0,0.0,88,0.00,,SCT028CU,0.00,0.00,VWS V14.00,2013-10-08 00:19:00,
2013-10-07 20:24:00,74.6,70.8,29.82,SE,143,0.0,1.0,88,0.00,,SCT028CU,0.00,0.00,VWS V14.00,2013-10-08 00:24:00,
2013-10-07 20:29:00,74.6,70.8,29.82,SE,143,0.0,0.0,88,0.00,,SCT028CU,0.00,0.00,VWS V14.00,2013-10-08 00:29:00,
2013-10-07 20:34:00,74.6,70.8,29.82,SE,143,0.0,0.0,88,0.00,,SCT028CU,0.00,0.00,VWS V14.00,2013-10-08 00:34:00,
2013-10-07 20:39:00,74.5,70.7,29.83,SE,143,0.0,0.0,88,0.00,,SCT028CU,0.00,0.00,VWS V14.00,2013-10-08 00:39:00,
2013-10-07 20:44:00,74.5,70.7,29.83,SE,143,0.0,1.0,88,0.00,,SCT028CU,0.00,0.00,VWS V14.00,2013-10-08 00:44:00,
2013-10-07 20:49:00,74.5,70.7,29.83,SE,143,0.0,4.0,88,0.00,,SCT028CU,0.00,0.00,VWS V14.00,2013-10-08 00:49:00,
2013-10-07 20:54:00,74.5,70.7,29.83,SE,143,0.0,0.0,88,0.00,,SCT028CU,0.00,0.00,VWS V14.00,2013-10-08 00:54:00,
2013-10-07 20:59:00,74.5,70.7,29.83,SE,143,0.0,0.0,88,0.00,,SCT028CU,0.00,0.00,VWS V14.00,2013-10-08 00:59:00,
2013-10-07 21:04:00,74.5,70.7,29.83,SE,143,0.0,1.0,88,0.00,,SCT028CU,0.00,0.00,VWS V14.00,2013-10-08 01:04:00,
2013-10-07 21:09:00,74.6,70.8,29.83,SE,143,3.0,4.0,88,0.00,,SCT028CU,0.00,0.00,VWS V14.00,2013-10-08 01:09:00,
2013-10-07 21:14:00,74.7,70.9,29.83,SE,143,0.0,1.0,88,0.00,,SCT028CU,0.00,0.00,VWS V14.00,2013-10-08 01:14:00,
2013-10-07 21:19:00,74.7,70.9,29.83,SE,143,0.0,0.0,88,0.00,,SCT028CU,0.00,0.00,VWS V14.00,2013-10-08 01:19:00,
2013-10-07 21:24:00,74.8,71.3,29.83,SE,143,0.0,0.0,89,0.00,,SCT028CU,0.00,0.00,VWS V14.00,2013-10-08 01:24:00,
2013-10-07 21:29:00,75.0,71.5,29.83,SE,143,0.0,0.0,89,0.00,,SCT028CU,0.00,0.00,VWS V14.00,2013-10-08 01:29:00,
2013-10-07 21:34:00,75.2,71.4,29.84,SE,143,0.0,0.0,88,0.00,,BKN035,0.00,0.00,VWS V14.00,2013-10-08 01:34:00,
2013-10-07 21:40:00,75.2,71.4,29.84,SE,143,0.0,0.0,88,0.00,,BKN035,0.00,0.00,VWS V14.00,2013-10-08 01:40:00,
2013-10-07 21:45:00,75.3,71.5,29.84,SE,143,0.0,0.0,88,0.00,,BKN035,0.00,0.00,VWS V14.00,2013-10-08 01:45:00,
2013-10-07 21:50:00,75.4,71.6,29.84,SE,143,0.0,0.0,88,0.00,,BKN035,0.00,0.00,VWS V14.00,2013-10-08 01:50:00,
2013-10-07 21:55:00,75.5,71.7,29.84,SE,143,0.0,0.0,88,0.00,,BKN035,0.00,0.00,VWS V14.00,2013-10-08 01:55:00,
2013-10-07 22:00:00,75.6,72.1,29.84,SE,143,0.0,0.0,89,0.00,,BKN035,0.00,0.00,VWS V14.00,2013-10-08 02:00:00,
2013-10-07 22:05:00,75.6,72.1,29.84,SE,143,0.0,0.0,89,0.00,,BKN035,0.00,0.00,VWS V14.00,2013-10-08 02:05:00,
2013-10-07 22:10:00,75.7,72.2,29.84,SE,143,0.0,0.0,89,0.00,,BKN035,0.00,0.00,VWS V14.00,2013-10-08 02:10:00,
2013-10-07 22:15:00,75.7,72.2,29.84,SE,143,0.0,0.0,89,0.00,,BKN035,0.00,0.00,VWS V14.00,2013-10-08 02:15:00,
2013-10-07 22:20:00,75.7,72.2,29.85,SE,143,0.0,0.0,89,0.00,,BKN035,0.00,0.00,VWS V14.00,2013-10-08 02:20:00,
2013-10-07 22:25:00,75.7,72.2,29.85,SE,143,0.0,0.0,89,0.00,,BKN035,0.00,0.00,VWS V14.00,2013-10-08 02:25:00,
2013-10-07 22:30:00,75.8,72.3,29.84,SE,143,0.0,0.0,89,0.00,,BKN035,0.00,0.00,VWS V14.00,2013-10-08 02:30:00,
2013-10-07 22:35:00,75.8,72.3,29.84,SE,143,0.0,0.0,89,0.00,,OVC110,0.00,0.00,VWS V14.00,2013-10-08 02:35:00,
2013-10-07 22:40:00,75.7,72.2,29.84,SE,143,0.0,0.0,89,0.00,,OVC110,0.00,0.00,VWS V14.00,2013-10-08 02:40:00,
2013-10-07 22:45:00,75.7,72.2,29.84,SE,143,0.0,1.0,89,0.00,,OVC110,0.00,0.00,VWS V14.00,2013-10-08 02:45:00,
2013-10-07 22:50:00,75.6,72.1,29.84,SE,143,0.0,0.0,89,0.00,,OVC110,0.00,0.00,VWS V14.00,2013-10-08 02:50:00,
2013-10-07 22:55:00,75.5,72.0,29.84,SE,143,0.0,0.0,89,0.00,,OVC110,0.00,0.00,VWS V14.00,2013-10-08 02:55:00,
2013-10-07 23:00:00,75.5,72.0,29.84,SE,143,0.0,0.0,89,0.00,,OVC110,0.00,0.00,VWS V14.00,2013-10-08 03:00:00,
2013-10-07 23:05:00,75.4,71.9,29.84,SE,143,0.0,0.0,89,0.00,,OVC110,0.00,0.00,VWS V14.00,2013-10-08 03:05:00,
2013-10-07 23:10:00,75.4,71.9,29.84,SE,143,0.0,0.0,89,0.00,,OVC110,0.00,0.00,VWS V14.00,2013-10-08 03:10:00,
2013-10-07 23:15:00,75.3,71.8,29.83,SE,143,0.0,0.0,89,0.00,,OVC110,0.00,0.00,VWS V14.00,2013-10-08 03:15:00,
2013-10-07 23:20:00,75.3,71.8,29.83,SE,143,0.0,0.0,89,0.00,,OVC110,0.00,0.00,VWS V14.00,2013-10-08 03:20:00,
2013-10-07 23:25:00,75.3,71.8,29.83,SE,143,0.0,0.0,89,0.00,,OVC110,0.00,0.00,VWS V14.00,2013-10-08 03:25:00,
2013-10-07 23:30:00,75.3,71.8,29.83,SE,143,0.0,0.0,89,0.00,,OVC110,0.00,0.00,VWS V14.00,2013-10-08 03:30:00,
2013-10-07 23:35:00,75.3,71.8,29.83,SE,143,0.0,0.0,89,0.00,,OVC110,0.00,0.00,VWS V14.00,2013-10-08 03:35:00,
2013-10-07 23:40:00,75.3,71.8,29.83,SE,143,0.0,0.0,89,0.00,,OVC110,0.00,0.00,VWS V14.00,2013-10-08 03:40:00,
2013-10-07 23:45:00,75.3,71.8,29.82,SE,143,0.0,0.0,89,0.00,,OVC110,0.00,0.00,VWS V14.00,2013-10-08 03:45:00,
2013-10-07 23:50:00,75.3,71.8,29.82,SE,143,0.0,0.0,89,0.00,,OVC110,0.00,0.00,VWS V14.00,2013-10-08 03:50:00,
2013-10-07 23:55:00,75.3,71.8,29.82,SE,143,0.0,0.0,89,0.00,,OVC110,0.00,0.00,VWS V14.00,2013-10-08 03:55:00,